Audubon, IA

8:08 PM CDT on May 24, 2017 (GMT -0500)
Audubon County

Weather History for KADU - May, 2013

Change the Weather History Date:

Tuesday, May 21, 2013

  Actual Average Record
Temperature  
Mean Temperature 60 °F -  
Max Temperature 66 °F 76 °F 90 °F (1970)
Min Temperature 55 °F 51 °F 35 °F (2002)
Degree Days  
Heating Degree Days 4    
Growing Degree Days 10 (Base 50)    
Moisture  
Dew Point 48 °F    
Average Humidity 65    
Maximum Humidity 88    
Minimum Humidity 45    
Precipitation  
Precipitation 0.00 in - - ()
Sea Level Pressure  
Sea Level Pressure 29.66 in    
Wind  
Wind Speed 10 mph (WSW)    
Max Wind Speed 21 mph    
Max Gust Speed 31 mph    
Visibility 9 miles    
Events      
Averages and records for this station are not official NWS values.
T = Trace of Precipitation, MM = Missing Value Source: NWS Daily Summary

Daily Weather History Graph

Daily Weather History Graph

Search for Another Location

Airport or City:

Trip Planner

Search our weather history database for the weather conditions in past years. The results will help you decide how hot, cold, wet, or windy it might be!

Date:

Astronomy

May. 21, 2013 Rise Set
Actual Time 5:54 AM CDT 8:38 PM CDT
Civil Twilight 5:22 AM CDT 9:11 PM CDT
Nautical Twilight 4:41 AM CDT 9:52 PM CDT
Astronomical Twilight 3:54 AM CDT 10:38 PM CDT
Moon 4:50 PM CDT (5/21) 3:26 AM CDT (5/21)
Length of Visible Light 15h 49m
Length of Day
14h 44m
Waxing Gibbous, 84% of the Moon is Illuminated
May 21
Waxing Gibbous
May 24
Full
May 31
Last Quarter
Jun 8
New
Jun 16
First Quarter

Hourly Weather History & Observations

Time (CDT) Temp. Dew Point Humidity Pressure Visibility Wind Dir Wind Speed Gust Speed Precip Events Conditions
12:35 AM 64.4 °F 51.8 °F 64% 29.59 in 10.0 mi SW 8.1 mph - N/A   Mostly Cloudy
12:55 AM 62.6 °F 51.8 °F 68% 29.58 in 10.0 mi SW 6.9 mph - N/A   Scattered Clouds
1:15 AM 60.8 °F 50.0 °F 68% 29.59 in 10.0 mi SW 6.9 mph - N/A   Clear
1:35 AM 60.8 °F 50.0 °F 68% 29.60 in 10.0 mi WSW 8.1 mph - N/A   Clear
1:55 AM 60.8 °F 50.0 °F 68% 29.59 in 10.0 mi WSW 8.1 mph - N/A   Clear
2:15 AM 59.0 °F 50.0 °F 72% 29.59 in 10.0 mi SW 5.8 mph - N/A   Clear
2:35 AM 59.0 °F 50.0 °F 72% 29.59 in 10.0 mi WSW 6.9 mph - N/A   Scattered Clouds
2:55 AM 59.0 °F 51.8 °F 77% 29.59 in 10.0 mi WSW 9.2 mph - N/A   Mostly Cloudy
3:15 AM 59.0 °F 51.8 °F 77% 29.59 in 10.0 mi WSW 9.2 mph - N/A   Overcast
3:35 AM 59.0 °F 51.8 °F 77% 29.59 in 10.0 mi West 5.8 mph - N/A   Overcast
3:55 AM 57.2 °F 51.8 °F 82% 29.60 in 10.0 mi West 4.6 mph - N/A   Scattered Clouds
4:15 AM 57.2 °F 50.0 °F 77% 29.61 in 10.0 mi West 3.5 mph - N/A   Clear
4:35 AM 57.2 °F 50.0 °F 77% 29.60 in 10.0 mi Calm Calm - N/A   Scattered Clouds
4:55 AM 55.4 °F 50.0 °F 82% 29.61 in 10.0 mi West 5.8 mph - N/A   Scattered Clouds
5:15 AM 57.2 °F 50.0 °F 77% 29.63 in 10.0 mi WSW 6.9 mph - N/A   Mostly Cloudy
5:35 AM 55.4 °F 50.0 °F 82% 29.63 in 10.0 mi WSW 8.1 mph - N/A   Mostly Cloudy
5:55 AM 55.4 °F 48.2 °F 77% 29.63 in 10.0 mi WSW 5.8 mph - N/A   Scattered Clouds
6:15 AM 55.4 °F 48.2 °F 77% 29.65 in 10.0 mi SW 6.9 mph - N/A   Mostly Cloudy
6:35 AM 55.4 °F 48.2 °F 77% 29.65 in 10.0 mi SW 5.8 mph - N/A   Mostly Cloudy
6:55 AM 55.4 °F 48.2 °F 77% 29.65 in 10.0 mi SW 9.2 mph - N/A   Mostly Cloudy
7:15 AM 57.2 °F 48.2 °F 72% 29.65 in 10.0 mi SW 12.7 mph 16.1 mph N/A   Overcast
7:35 AM 57.2 °F 48.2 °F 72% 29.65 in 10.0 mi WSW 12.7 mph 20.7 mph N/A   Overcast
7:55 AM 57.2 °F 48.2 °F 72% 29.65 in 10.0 mi WSW 13.8 mph 18.4 mph N/A   Overcast
8:15 AM 57.2 °F 48.2 °F 72% 29.66 in 10.0 mi WSW 12.7 mph 17.3 mph N/A   Overcast
8:35 AM 57.2 °F 46.4 °F 67% 29.67 in 10.0 mi WSW 13.8 mph 19.6 mph N/A   Overcast
8:55 AM 57.2 °F 46.4 °F 67% 29.67 in 10.0 mi WSW 10.4 mph - N/A   Overcast
9:15 AM 57.2 °F 48.2 °F 72% 29.67 in 10.0 mi SW 11.5 mph 19.6 mph N/A   Overcast
9:35 AM 59.0 °F 46.4 °F 63% 29.67 in 10.0 mi WSW 15.0 mph 23.0 mph N/A   Overcast
9:55 AM 59.0 °F 48.2 °F 67% 29.67 in 10.0 mi WSW 16.1 mph 19.6 mph N/A   Overcast
10:15 AM 60.8 °F 48.2 °F 63% 29.67 in 10.0 mi WSW 11.5 mph - N/A   Overcast
10:35 AM 60.8 °F 48.2 °F 63% 29.67 in 10.0 mi WSW 16.1 mph - N/A   Overcast
10:55 AM 60.8 °F 48.2 °F 63% 29.67 in 10.0 mi WSW 17.3 mph 20.7 mph N/A   Overcast
11:15 AM 60.8 °F 46.4 °F 59% 29.67 in 10.0 mi SW 13.8 mph - N/A   Mostly Cloudy
11:35 AM 62.6 °F 48.2 °F 59% 29.67 in 10.0 mi SW 15.0 mph 19.6 mph N/A   Mostly Cloudy
11:55 AM 64.4 °F 48.2 °F 56% 29.67 in 10.0 mi SW 13.8 mph - N/A   Scattered Clouds
12:15 PM 64.4 °F 46.4 °F 52% 29.67 in 10.0 mi SW 13.8 mph 21.9 mph N/A   Scattered Clouds
12:35 PM 64.4 °F 46.4 °F 52% 29.67 in 10.0 mi WSW 15.0 mph 20.7 mph N/A   Mostly Cloudy
12:55 PM 64.4 °F 46.4 °F 52% 29.67 in 10.0 mi SW 12.7 mph 17.3 mph N/A   Mostly Cloudy
1:15 PM 62.6 °F 44.6 °F 52% 29.68 in 10.0 mi WSW 13.8 mph - N/A   Mostly Cloudy
1:35 PM 62.6 °F 44.6 °F 52% 29.68 in 10.0 mi WSW 15.0 mph 21.9 mph N/A   Overcast
1:55 PM 64.4 °F 44.6 °F 49% 29.68 in 10.0 mi SW 17.3 mph 25.3 mph N/A   Mostly Cloudy
2:15 PM 66.2 °F 44.6 °F 46% 29.68 in 10.0 mi SW 18.4 mph 27.6 mph N/A   Mostly Cloudy
2:35 PM 66.2 °F 44.6 °F 46% 29.68 in 10.0 mi WSW 19.6 mph 25.3 mph N/A   Scattered Clouds
2:55 PM 66.2 °F 44.6 °F 46% 29.68 in 10.0 mi WSW 16.1 mph 26.5 mph N/A   Scattered Clouds
3:15 PM 66.2 °F 44.6 °F 46% 29.68 in 10.0 mi WSW 20.7 mph 27.6 mph N/A   Scattered Clouds
3:35 PM 66.2 °F 44.6 °F 46% 29.67 in 10.0 mi WSW 18.4 mph 31.1 mph N/A   Clear
3:55 PM 64.4 °F 44.6 °F 49% 29.67 in 10.0 mi WSW 18.4 mph 26.5 mph N/A   Scattered Clouds
4:15 PM 64.4 °F 42.8 °F 45% 29.67 in 10.0 mi WSW 18.4 mph 26.5 mph N/A   Scattered Clouds
4:35 PM 64.4 °F 42.8 °F 45% 29.68 in 10.0 mi SW 13.8 mph 21.9 mph N/A   Scattered Clouds
4:55 PM 64.4 °F 44.6 °F 49% 29.67 in 10.0 mi SW 18.4 mph 24.2 mph N/A   Mostly Cloudy
5:15 PM 64.4 °F 44.6 °F 49% 29.67 in 10.0 mi SW 13.8 mph 23.0 mph N/A   Mostly Cloudy
5:35 PM 62.6 °F 44.6 °F 52% 29.66 in 10.0 mi WSW 18.4 mph 24.2 mph N/A   Mostly Cloudy
5:55 PM 62.6 °F 44.6 °F 52% 29.67 in 10.0 mi WSW 15.0 mph 23.0 mph N/A   Overcast
6:15 PM 62.6 °F 44.6 °F 52% 29.67 in 10.0 mi SW 12.7 mph 23.0 mph N/A   Overcast
6:35 PM 62.6 °F 44.6 °F 52% 29.67 in 10.0 mi SW 13.8 mph 19.6 mph N/A   Overcast
6:55 PM 62.6 °F 46.4 °F 55% 29.67 in 10.0 mi WSW 12.7 mph 23.0 mph N/A   Overcast
7:15 PM 62.6 °F 46.4 °F 55% 29.68 in 10.0 mi WSW 13.8 mph 20.7 mph N/A   Mostly Cloudy
7:35 PM 62.6 °F 46.4 °F 55% 29.68 in 10.0 mi WSW 16.1 mph - N/A   Mostly Cloudy
7:55 PM 60.8 °F 46.4 °F 59% 29.67 in 10.0 mi WSW 12.7 mph 21.9 mph N/A   Scattered Clouds
8:15 PM 60.8 °F 48.2 °F 63% 29.66 in 10.0 mi WSW 12.7 mph 19.6 mph N/A   Clear
8:35 PM 60.8 °F 48.2 °F 63% 29.67 in 10.0 mi WSW 11.5 mph 18.4 mph N/A   Mostly Cloudy
8:55 PM 59.0 °F 50.0 °F 72% 29.68 in 10.0 mi WSW 15.0 mph 18.4 mph N/A   Overcast
9:15 PM 57.2 °F 50.0 °F 77% 29.69 in 5.0 mi SW 10.4 mph - N/A   Overcast
9:35 PM 57.2 °F 51.8 °F 82% 29.69 in 5.0 mi SW 10.4 mph - N/A   Overcast
9:55 PM 57.2 °F 51.8 °F 82% 29.69 in 4.0 mi WSW 10.4 mph - N/A   Overcast
10:15 PM 57.2 °F 51.8 °F 82% 29.69 in 3.0 mi WSW 10.4 mph 17.3 mph N/A   Overcast
10:35 PM 57.2 °F 51.8 °F 82% 29.69 in 3.0 mi West 3.5 mph - N/A   Overcast
10:55 PM 55.4 °F 50.0 °F 82% 29.69 in 4.0 mi WNW 6.9 mph - N/A   Overcast
11:15 PM 55.4 °F 50.0 °F 82% 29.69 in 4.0 mi WNW 3.5 mph - N/A   Overcast
11:35 PM 55.4 °F 51.8 °F 88% 29.69 in 5.0 mi West 3.5 mph - N/A   Overcast
11:55 PM 55.4 °F 50.0 °F 82% 29.69 in 10.0 mi West 4.6 mph - N/A   Overcast